Weather History for Vero Beach, FL

Change the Weather History Date:

Friday, December 28, 2012

  Actual Average Record
Temperature  
Mean Temperature 58 °F 63 °F  
Max Temperature 74 °F 73 °F 84 °F (1981)
Min Temperature 41 °F 53 °F 29 °F (2010)
Degree Days  
Heating Degree Days 7 5  
Month to date heating degree days 49 91  
Since 1 July heating degree days 101 121  
Cooling Degree Days 0 2  
Month to date cooling degree days 112 86  
Year to date cooling degree days 3531 3397  
Growing Degree Days 8 (Base 50)    
Moisture  
Dew Point 57 °F    
Average Humidity 73    
Maximum Humidity 93    
Minimum Humidity 53    
Precipitation  
Precipitation 0.12 in 0.07 in 2.16 in (1978)
Month to date precipitation 3.51 1.98  
Year to date precipitation 49.90 51.66  
Sea Level Pressure  
Sea Level Pressure 30.04 in    
Wind  
Wind Speed 5 mph (SE)    
Max Wind Speed 15 mph    
Max Gust Speed 20 mph    
Visibility 10 miles    
Events Rain    
T = Trace of Precipitation, MM = Missing Value Source: NWS Daily Summary

Daily Weather History Graph

Daily Weather History Graph

Search for Another Location

Airport:

Trip Planner

Search our weather history database for the weather conditions in past years. The results will help you decide how hot, cold, wet, or windy it might be!

Date:

Astronomy

Dec. 28, 2012 Rise Set
Actual Time 7:11 AM EST 5:35 PM EST
Civil Twilight 6:45 AM EST 6:01 PM EST
Nautical Twilight 6:16 AM EST 6:30 PM EST
Astronomical Twilight 5:47 AM EST 6:59 PM EST
Moon 6:05 PM EST (12/28) 7:08 AM EST (12/28)
Length of Visible Light 11h 15m
Length of Day
10h 24m
Full, 100% of the Moon is Illuminated
Dec 28
Full
Jan 4
Last Quarter
Jan 11
New
Jan 18
First Quarter
Jan 26
Full

Hourly Weather History & Observations

Time (EST) Temp. Windchill Dew Point Humidity Pressure Visibility Wind Dir Wind Speed Gust Speed Precip Events Conditions
12:53 AM 43.0 °F 41.3 °F 39.9 °F 89% 30.09 in 10.0 mi NNW 3.5 mph - N/A   Clear
1:53 AM 44.1 °F - 41.0 °F 89% 30.08 in 10.0 mi Calm Calm - N/A   Clear
2:53 AM 43.0 °F - 39.9 °F 89% 30.07 in 10.0 mi Calm Calm - N/A   Clear
3:53 AM 46.9 °F - 41.0 °F 80% 30.06 in 10.0 mi Calm Calm - N/A   Clear
4:53 AM 46.0 °F 44.8 °F 41.0 °F 83% 30.07 in 10.0 mi WNW 3.5 mph - N/A   Clear
6:53 AM 43.0 °F - 39.9 °F 89% 30.09 in 10.0 mi Calm Calm - N/A   Clear
7:53 AM 46.0 °F - 43.0 °F 89% 30.09 in 10.0 mi Calm Calm - N/A   Clear
8:53 AM 57.0 °F - 51.1 °F 81% 30.10 in 10.0 mi Calm Calm - N/A   Clear
9:53 AM 68.0 °F - 55.0 °F 63% 30.11 in 10.0 mi Variable 3.5 mph - N/A   Clear
10:53 AM 70.0 °F - 57.0 °F 63% 30.10 in 10.0 mi East 6.9 mph - N/A   Clear
11:53 AM 71.1 °F - 57.0 °F 61% 30.08 in 10.0 mi NE 5.8 mph - N/A   Clear
12:53 PM 73.9 °F - 55.9 °F 53% 30.04 in 10.0 mi ESE 10.4 mph - N/A   Clear
1:53 PM 73.0 °F - 57.9 °F 59% 30.02 in 10.0 mi ESE 13.8 mph - N/A   Partly Cloudy
2:53 PM 73.0 °F - 57.9 °F 59% 30.01 in 10.0 mi ESE 12.7 mph - N/A   Mostly Cloudy
3:53 PM 73.0 °F - 60.1 °F 64% 30.00 in 10.0 mi SE 10.4 mph - N/A   Clear
4:53 PM 71.1 °F - 62.1 °F 73% 29.99 in 10.0 mi ESE 10.4 mph - N/A   Clear
5:53 PM 71.1 °F - 64.0 °F 78% 30.00 in 10.0 mi SE 9.2 mph - N/A   Mostly Cloudy
6:23 PM 71.6 °F - 64.4 °F 78% 30.00 in 10.0 mi SSE 6.9 mph - N/A   Overcast
6:53 PM 71.1 °F - 64.9 °F 81% 30.01 in 10.0 mi SE 5.8 mph - N/A   Overcast
7:24 PM 71.6 °F - 66.2 °F 83% 30.01 in 10.0 mi SE 6.9 mph - N/A   Mostly Cloudy
8:01 PM 71.6 °F - 66.2 °F 83% 30.01 in 10.0 mi SE 8.1 mph - N/A   Overcast
8:53 PM 71.1 °F - 68.0 °F 90% 30.01 in 8.0 mi SSE 4.6 mph - 0.01 in Rain Light Rain
9:23 PM 71.6 °F - 69.8 °F 94% 30.01 in 6.0 mi SSE 4.6 mph - 0.02 in Rain Light Rain
9:53 PM 71.1 °F - 69.1 °F 93% 30.01 in 9.0 mi SSE 5.8 mph - 0.05 in Rain Light Rain
10:53 PM 71.1 °F - 69.1 °F 93% 30.00 in 8.0 mi South 9.2 mph - 0.03 in Rain Light Rain
11:53 PM 72.0 °F - 69.1 °F 91% 29.98 in 10.0 mi South 8.1 mph - 0.03 in   Overcast